COSMOS 2433 (720) (32275 NORAD) Tracking and Keplerian Element Data

This shows tracking and keplerian element data for the satellite.

Feedback or suggestion? Click here.




ElementValue
Catalog32275
NameCOSMOS 2433 (720)
Epoch Orbit8602
Epoch Day318.1181063
Epoch Year2018
RAAN48.3371
Inclination65.7586
Eccentricity0.0003246
Argument of Perigee228.8354
Mean Anonmoly217.0913
Mean Motion2.13104539
Decay Rate-5.9E-07
L11 32275U 07052A 18318.11810630 -.00000059 00000-0 10000-3 0 9993
L22 32275 65.7586 48.3371 0003246 228.8354 217.0913 2.13104539 86028

Live tracking and technical data element details for COSMOS 2433 (720) (NORAD 32275). COSMOS 2433 (720) can be tracked NOW for your location showing map with azimuth and elevation plus other details from your city location.

Track the satellite on the map from your city or location and see movement details for azimuth, elevation, latitude, longitude, range, height, and movement on the map or in text.







IsCatalogInMostPopularTable: catalog: 32275, numindb: 54
Update: records affected: 1



GetName: 32275 COSMOS 2433 (720)

Hit Count: updated at: Fri, 16 Nov 2018 04:59:55 GMT